Total_Precipitation_Accumulation
0.31 0.29 0.24 0.23 0.21 0.18 0.17 0.22 0.34 0.18 0.02 0.00 0.02 0.05 0.11 0.15 0.21 0.35 0.47 0.44 0.37 0.35 0.38 0.33 0.25 0.28 0.50 0.62 0.68 0.81 1.01 1.06 0.87 0.73 0.64 0.65 0.76 0.83
0.13 0.09 0.07 0.06 0.06 0.08 0.09 0.08 0.09 0.11 0.05 0.00 0.00 0.00 0.00 0.03 0.09 0.19 0.40 0.51 0.34 0.29 0.35 0.41 0.44 0.42 0.38 0.58 0.85 0.90 0.93 1.03 1.02 0.98 0.97 0.73 0.69 0.78
0.02 0.02 0.01 0.01 0.01 0.01 0.02 0.03 0.04 0.05 0.03 0.00 0.00 0.00 0.00 0.01 0.03 0.10 0.22 0.43 0.54 0.38 0.27 0.33 0.41 0.47 0.52 0.46 0.50 0.84 1.19 1.07 0.87 0.77 0.79 0.88 0.87 0.78
0.00 0.00 0.00 0.00 0.00 0.00 0.01 0.01 0.01 0.01 0.02 0.01 0.00 0.00 0.00 0.00 0.01 0.03 0.10 0.24 0.42 0.53 0.49 0.31 0.26 0.33 0.42 0.55 0.56 0.54 0.71 1.17 1.17 0.86 0.70 0.75 0.87 1.00
0.00 0.00 0.00 0.00 0.00 0.00 0.00 0.01 0.01 0.01 0.02 0.03 0.01 0.00 0.00 0.00 0.00 0.02 0.03 0.07 0.16 0.30 0.43 0.55 0.44 0.27 0.27 0.31 0.42 0.53 0.50 0.50 0.85 1.10 0.90 0.73 0.69 0.74
0.00 0.00 0.00 0.00 0.00 0.00 0.01 0.01 0.01 0.03 0.03 0.03 0.01 0.00 0.00 0.00 0.02 0.02 0.03 0.05 0.06 0.13 0.31 0.49 0.55 0.48 0.31 0.23 0.27 0.31 0.39 0.52 0.53 0.69 1.04 1.04 0.80 0.77
0.00 0.00 0.00 0.00 0.00 0.01 0.02 0.01 0.03 0.04 0.04 0.05 0.04 0.03 0.02 0.02 0.03 0.05 0.05 0.05 0.07 0.08 0.18 0.36 0.52 0.60 0.61 0.37 0.21 0.23 0.30 0.33 0.42 0.52 0.61 0.83 1.08 0.87
0.01 0.00 0.00 0.00 0.01 0.01 0.00 0.00 0.01 0.05 0.10 0.12 0.11 0.09 0.05 0.04 0.05 0.10 0.11 0.10 0.11 0.11 0.15 0.26 0.42 0.54 0.65 0.68 0.49 0.34 0.27 0.31 0.34 0.40 0.49 0.53 0.61 0.95
0.01 0.01 0.01 0.00 0.00 0.01 0.01 0.01 0.01 0.02 0.09 0.16 0.24 0.13 0.10 0.08 0.10 0.16 0.14 0.14 0.12 0.08 0.14 0.24 0.34 0.46 0.50 0.67 0.72 0.51 0.44 0.45 0.47 0.46 0.46 0.52 0.51 0.54
0.01 0.01 0.02 0.01 0.01 0.03 0.07 0.13 0.08 0.05 0.04 0.05 0.14 0.12 0.07 0.07 0.12 0.17 0.22 0.26 0.19 0.07 0.10 0.25 0.26 0.38 0.39 0.46 0.67 0.86 0.73 0.61 0.63 0.68 0.63 0.57 0.62 0.58
0.01 0.02 0.04 0.06 0.04 0.08 0.31 0.39 0.18 0.07 0.04 0.05 0.08 0.07 0.08 0.09 0.15 0.43 0.50 0.50 0.35 0.12 0.12 0.22 0.19 0.28 0.38 0.51 0.65 0.70 0.88 0.96 0.79 0.75 0.78 0.69 0.63 0.67
0.05 0.04 0.03 0.04 0.11 0.19 0.45 0.47 0.39 0.10 0.04 0.07 0.07 0.05 0.04 0.07 0.07 0.31 0.44 0.48 0.32 0.28 0.10 0.21 0.17 0.20 0.38 0.49 0.50 0.71 0.82 0.86 0.93 0.86 0.74 0.75 0.72 0.71
0.10 0.06 0.06 0.20 0.28 0.22 0.25 0.39 0.36 0.15 0.11 0.14 0.15 0.15 0.14 0.14 0.16 0.22 0.35 0.58 0.48 0.29 0.04 0.19 0.18 0.17 0.27 0.41 0.52 0.56 0.66 0.83 0.88 0.95 0.94 0.81 0.74 0.69
0.21 0.16 0.22 0.18 0.18 0.17 0.19 0.27 0.23 0.22 0.31 0.35 0.32 0.25 0.27 0.22 0.19 0.22 0.24 0.28 0.29 0.27 0.13 0.31 0.35 0.16 0.28 0.38 0.38 0.54 0.66 0.74 0.76 0.87 0.95 1.00 0.94 0.87
0.24 0.23 0.16 0.13 0.09 0.08 0.13 0.20 0.21 0.35 0.39 0.35 0.31 0.21 0.16 0.16 0.17 0.23 0.29 0.36 0.37 0.33 0.24 0.35 0.31 0.18 0.28 0.34 0.35 0.38 0.50 0.71 0.72 0.70 0.75 0.79 0.77 0.74
0.12 0.11 0.15 0.13 0.11 0.17 0.22 0.23 0.38 0.47 0.40 0.35 0.23 0.19 0.21 0.23 0.27 0.28 0.31 0.35 0.65 0.62 0.36 0.31 0.26 0.34 0.42 0.28 0.21 0.30 0.33 0.49 0.60 0.66 0.66 0.75 0.78 0.70
0.16 0.18 0.14 0.09 0.09 0.11 0.15 0.13 0.15 0.14 0.19 0.20 0.21 0.19 0.25 0.21 0.24 0.29 0.30 0.26 0.42 0.34 0.42 0.41 0.37 0.39 0.40 0.38 0.50 0.30 0.30 0.34 0.43 0.50 0.56 0.65 0.72 0.81
0.17 0.16 0.15 0.16 0.17 0.16 0.19 0.21 0.12 0.13 0.11 0.13 0.21 0.18 0.21 0.27 0.19 0.16 0.21 0.28 0.23 0.29 0.30 0.31 0.39 0.67 0.62 0.41 0.29 0.31 0.36 0.39 0.33 0.36 0.41 0.50 0.55 0.58
0.14 0.17 0.19 0.21 0.20 0.16 0.16 0.19 0.24 0.27 0.18 0.16 0.23 0.24 0.18 0.20 0.29 0.21 0.21 0.32 0.31 0.23 0.34 0.39 0.38 0.44 0.58 0.52 0.31 0.20 0.26 0.22 0.31 0.37 0.42 0.42 0.39 0.47
0.14 0.17 0.20 0.19 0.17 0.11 0.11 0.14 0.16 0.18 0.17 0.17 0.26 0.20 0.16 0.13 0.16 0.16 0.18 0.18 0.20 0.19 0.17 0.22 0.25 0.28 0.35 0.40 0.47 0.31 0.26 0.21 0.27 0.31 0.40 0.46 0.47 0.49
0.16 0.16 0.18 0.15 0.11 0.10 0.11 0.11 0.14 0.16 0.16 0.17 0.20 0.19 0.15 0.15 0.11 0.11 0.09 0.10 0.10 0.13 0.18 0.19 0.19 0.18 0.20 0.26 0.38 0.38 0.38 0.28 0.18 0.23 0.28 0.45 0.41 0.35
0.17 0.16 0.14 0.13 0.12 0.09 0.09 0.09 0.09 0.11 0.09 0.10 0.14 0.13 0.15 0.15 0.13 0.14 0.12 0.10 0.13 0.13 0.13 0.13 0.16 0.12 0.15 0.14 0.28 0.21 0.28 0.34 0.25 0.17 0.19 0.23 0.29 0.36
0.15 0.14 0.12 0.09 0.09 0.08 0.08 0.07 0.06 0.08 0.09 0.09 0.09 0.12 0.15 0.16 0.16 0.15 0.12 0.10 0.09 0.08 0.08 0.12 0.13 0.11 0.11 0.08 0.15 0.21 0.14 0.18 0.24 0.15 0.13 0.16 0.14 0.17